Starlink 37055

operational
NORAD ID: 68147 Int'l Des: 2026-049 Owner: SPXS Country: US Constellation: starlink
LEOCIRCULARRETROGRADE

About Starlink 37055

Description loading...

Live Position

Loading 3D Globe...

Upcoming Passes

Altitude History

Altitude vs Time

uPlot chart will show altitude changes over time

Two-Line Element Set

1 68147C 26049F 26072.93520833 .00489360 00000+0 57140-3 0 728
2 68147 97.2822 91.9370 0010010 253.3607 236.0580 16.08150877 13
Epoch: Mar 13, 2026 • Age: 70 hours

Current Status

Altitude 258.8 km
Velocity 7.75 km/s
Sub-Earth Point 41.49°N, 53.48°W
Launch Date Mar 13, 2026
Age 2 days
Type internet

Technical Details

Classification Payload
Mass 575.00 kg
Dry Mass 530.00 kg
Total Mass 575.00 kg
Length 0.30 m
Diameter 4.10 m
Span 29.00 m
Shape Box + pan
Manufacturer SPXS
Bus Type Starlink V2MO
Phase Status In Orbit
Owner/State SPXS/US

Large Constellations

Loading constellations...